Regional Weather Roundup
Issued by NWS

Home | Current Version | Previous Version | Text Only | Print | Product List | Glossary On
Versions: 1 2 3 4 5 6 7 8 9 10 11 12 13 14 15 16 17 18 19 20 21 22 23 24 25 26 27 28 29 30 31 32 33 34 35 36 37 38 39 40 41 42 43 44 45 46 47 48 49 50
000
ASUS43 KLOT 271412
RWRIL

ILLINOIS REGIONAL WEATHER ROUNDUP
NATIONAL WEATHER SERVICE CHICAGO/ROMEOVILLE IL
900 AM CDT MON APR 27 2015

NOTE: "FAIR" INDICATES FEW OR NO CLOUDS BELOW 12,000 FEET WITH NO
SIGNIFICANT WEATHER AND/OR OBSTRUCTIONS TO VISIBILITY.

* THESE STATIONS ARE NOT UNDER NWS QUALITY CONTROL. THEY ALSO MAY NOT
  REPORT WEATHER SUCH AS PRECIPITATION OR FOG.

ILZ001-002-007-009-015-016-024-271500-
NORTHWEST ILLINOIS

CITY           SKY/WX    TMP DP  RH WIND       PRES   REMARKS
MOLINE         SUNNY     49  34  56 E7        30.16R
STERLING*      SUNNY     50  36  57 NE10      30.16F
SAVANNA*       SUNNY     49  32  51 N7        30.18S
$$

ILZ003-004-008-010-011-017-018-271500-
NORTH CENTRAL ILLINOIS

CITY           SKY/WX    TMP DP  RH WIND       PRES   REMARKS
ROCKFORD       SUNNY     49  32  52 N8        30.19R
FREEPORT*      SUNNY     46  32  58 N5        30.19R
ROCHELLE*      SUNNY     46  33  60 N8        30.16S
DE KALB*       SUNNY     44  32  63 N9        30.15S
PERU*          SUNNY     49  34  55 N9        30.15S
$$

ILZ005-006-012>014-019>023-271500-
NORTHEAST ILLINOIS

CITY           SKY/WX    TMP DP  RH WIND       PRES   REMARKS
CHICAGO-OHARE  MOSUNNY   47  32  56 N9        30.12R
CHICAGO-MIDWAY MOSUNNY   50  34  54 N12       30.12R
AURORA           N/A     47  33  58 N9        30.15R
LANSING*       SUNNY     46  32  59 N12G18    30.12R
JOLIET*        SUNNY     48  35  60 N10       30.14S
WAUKEGAN       SUNNY     48  33  56 N13G20    30.11R
DUPAGE AIRPORT SUNNY     48  33  56 N8        30.13R
KANKAKEE*      SUNNY     47  35  64 N12       30.12S
WHEELING       SUNNY     49  33  54 N8        30.14R
MORRIS*        SUNNY     47  35  63 N7        30.11F
ROMEOVILLE*    SUNNY     47  33  56 N12       30.13R
NORTHERLY ISL    N/A     46  34  62 MISG        N/A
$$

LMZ740>746-271500-
SOUTHERN LAKE MICHIGAN

STATION/POSITION SKY/WX   TEMP    WIND        PRES    VSBY  WAVE
                          AIR SEA DIR/SP/G                  HT/PER
                          (F)     (DEG/KT/KT) (MB)    (MI)  (FT/S)
HARRISON CRIB              41     350/ 16/ 19   N/A
BURNHAM HARBOR             45     330/ 12/ 16   N/A
CALUMET HARBOR             44     330/ 13/ 18   N/A
BURNS HARBOR               41     350/ 15/ 18 1019.3R
MICHIGAN CITY              41     340/ 21/ 24   N/A
MICHIGAN CITY 6N           40 45  340/ 14/ 17   N/A           4/ 5
$$

ILZ025>027-034>036-040-047-049-050-058-095>099-271500-
WEST-CENTRAL ILLINOIS

CITY           SKY/WX    TMP DP  RH WIND       PRES   REMARKS
QUINCY         MOSUNNY   50  38  63 N10       30.12R
GALESBURG*     SUNNY     50  35  56 NE6       30.14R
MACOMB*        SUNNY     48  37  64 NE9       30.15R
JACKSONVILLE*  MOSUNNY   53  35  51 NE10      30.11S
PITTSFIELD*    MOSUNNY   51  40  64 N5        30.12S
$$

ILZ028>032-037-038-041>044-048-051>054-059>061-271500-
CENTRAL ILLINOIS

CITY           SKY/WX    TMP DP  RH WIND       PRES   REMARKS
PONTIAC        SUNNY     49  36  61 N14       30.13F
BLOOMINGTON    SUNNY     47  36  65 N13       30.13S
DECATUR        SUNNY     50  36  58 N16       30.10S
PEORIA         SUNNY     51  33  50 E15       30.14R
LACON*         SUNNY     47  34  61 N6        30.14S
LINCOLN*       SUNNY     49  37  62 N14       30.11S
SPRINGFIELD    SUNNY     50  35  56 NE12      30.11S
TAYLORVILLE    MOSUNNY   48  34  57 N16       30.09S
$$

ILZ033-039-045-046-055>057-062-063-271500-
EAST-CENTRAL ILLINOIS

CITY           SKY/WX    TMP DP  RH WIND       PRES   REMARKS
CHAMPAIGN      SUNNY     49  35  58 N17       30.09S
DANVILLE*      SUNNY     46  35  67 N18       30.06S
RANTOUL*       SUNNY     48  35  62 N14G21    30.11R
MATTOON        SUNNY     48  36  63 N17       30.07S
PARIS*         SUNNY     48  38  68 N13       30.08S
$$

ILZ079-100>102-271500-
SOUTHWEST ILLINOIS

CITY           SKY/WX    TMP DP  RH WIND       PRES   REMARKS
BELLEVILLE     CLOUDY    50  34  54 N8        30.08R
CAHOKIA*       CLOUDY    51  35  54 NE5       30.10R
SPARTA*        CLOUDY    47  36  63 N7        30.10R
$$

ILZ064>066-069>071-074>076-080>082-084>086-088>090-092>094-271500-
SOUTH-CENTRAL ILLINOIS

CITY           SKY/WX    TMP DP  RH WIND       PRES   REMARKS
CARBONDALE     CLOUDY    49  35  58 CALM      30.09R
CAIRO*         MOSUNNY   52  34  50 NE5       30.10R
EFFINGHAM*     MOSUNNY   49  31  49 N12G21    30.07S
MARION         PTSUNNY   50  34  53 NE6       30.09R
MT. VERNON     PTSUNNY   50  34  53 N5        30.07R
CENTRALIA*     CLOUDY    53  32  44 N8        30.06R
SALEM*         PTSUNNY   51  34  52 N14       30.06R
METROPOLIS*    MOSUNNY   52  35  52 N5        30.07R
$$

ILZ067-068-072-073-078-083-087-091-271500-
SOUTHEAST ILLINOIS

CITY           SKY/WX    TMP DP  RH WIND       PRES   REMARKS
LAWRENCEVILLE  PTSUNNY   50  35  56 N13       30.04S
FLORA*         PTSUNNY   48  34  58 N10G21    30.05R
FAIRFIELD*     PTSUNNY   50  34  55 N12       30.05R
HARRISBURG*    PTSUNNY   49  33  55 N8        30.08R
ROBINSON*      MOSUNNY   47  35  63 N13       30.05F
CARMI*         PTSUNNY   50  31  47 NE12      30.05R
$$

ABBREVIATIONS USED IN REMARKS
   TC - TEMPERATURE IN CELSIUS
  WCI - WIND CHILL INDEX
   HX - HEAT INDEX
  VSB - VISIBILITY
$$




USA.gov is the U.S. government's official web portal to all federal, state and local government web resources and services.